This is the latest recevied weather packets stored in our database for station/object SP1BMW-13. If no packets are shown the sender has not sent any weather packets the latest 10 day(s).
| Time | Temp. | Humidity | Pressure | Rain* | Wind** | Luminosity | Snow |
|---|---|---|---|---|---|---|---|
| 1778134974 | 7.22° C | 84% | 1012 hPa | 0 mm | 0.45 m/s, 48° | 52 W/m² | - |
| 1778134914 | 7.22° C | 83% | 1012.2 hPa | 0 mm | 0 m/s | 48 W/m² | - |
| 1778134854 | 7.22° C | 83% | 1012.1 hPa | 0 mm | 1.34 m/s, 329° | 49 W/m² | - |
| 1778134793 | 7.22° C | 83% | 1012.1 hPa | 0 mm | 1.79 m/s, 34° | 50 W/m² | - |
| 1778134733 | 7.22° C | 83% | 1012.1 hPa | 0 mm | 0.45 m/s, 37° | 48 W/m² | - |
| 1778134673 | 7.22° C | 83% | 1012.2 hPa | 0 mm | 0.89 m/s, 21° | 45 W/m² | - |
| 1778134614 | 7.22° C | 82% | 1012 hPa | 0 mm | 1.79 m/s, 355° | 45 W/m² | - |
| 1778134554 | 7.22° C | 83% | 1012.1 hPa | 0 mm | 0.89 m/s, 330° | 45 W/m² | - |
| 1778134494 | 7.22° C | 83% | 1012.1 hPa | 0 mm | 0.89 m/s, 53° | 43 W/m² | - |
| 1778134434 | 7.22° C | 82% | 1011.8 hPa | 0 mm | 0.89 m/s, 32° | 41 W/m² | - |
| 1778134374 | 7.22° C | 83% | 1012 hPa | 0 mm | 0.89 m/s, 35° | 40 W/m² | - |
| 1778134314 | 7.22° C | 83% | 1012 hPa | 0 mm | 0.45 m/s, 47° | 40 W/m² | - |
| 1778134254 | 7.22° C | 83% | 1012 hPa | 0 mm | 0.89 m/s, 38° | 42 W/m² | - |
| 1778134194 | 7.22° C | 83% | 1012.1 hPa | 0 mm | 0 m/s | 46 W/m² | - |
| 1778134133 | 7.22° C | 83% | 1011.8 hPa | 0 mm | 0.89 m/s, 338° | 47 W/m² | - |
| 1778134073 | 7.22° C | 83% | 1011.8 hPa | 0 mm | 0.89 m/s, 50° | 46 W/m² | - |
| 1778134013 | 7.22° C | 83% | 1011.9 hPa | 0 mm | 0.45 m/s, 353° | 46 W/m² | - |
| 1778133953 | 7.22° C | 84% | 1011.9 hPa | 0 mm | 0.45 m/s, 32° | 48 W/m² | - |
| 1778133894 | 7.22° C | 83% | 1011.9 hPa | 0 mm | 0.45 m/s, 36° | 53 W/m² | - |
| 1778133834 | 7.22° C | 83% | 1012 hPa | 0 mm | 0.89 m/s, 23° | 56 W/m² | - |
| 1778133774 | 7.22° C | 83% | 1011.8 hPa | 0 mm | 1.34 m/s, 266° | 55 W/m² | - |
| 1778133714 | 7.22° C | 83% | 1011.8 hPa | 0 mm | 0.89 m/s, 45° | 54 W/m² | - |
| 1778133654 | 7.22° C | 83% | 1011.8 hPa | 0 mm | 1.79 m/s, 56° | 51 W/m² | - |
| 1778133593 | 7.22° C | 84% | 1011.8 hPa | 0 mm | 0.45 m/s, 65° | 47 W/m² | - |
| 1778133534 | 7.22° C | 83% | 1011.9 hPa | 0 mm | 0.89 m/s, 38° | 44 W/m² | - |
* Rain latest hour (hover to see other rain measurements)
** Current wind speed in m/s (hover to see current wind gust speed)